CW3590 Weather Reports


Display with metric or nautical units.
time (UTC)temp
F
wind
direction
speed
MPH
gust
MPH
rain 1hr
in
rain 24hr
in
rain mn
in
humidity
%
barometer
mb
20260503201006 79 217 3.0 7.0 0.00 0.00 0.00 41 1017.9
20260503200005 79 267 4.0 12.0 0.00 0.00 0.00 40 1018.1
20260503195005 78 264 3.0 10.0 0.00 0.00 0.00 38 1018.3
20260503194005 78 214 3.0 9.0 0.00 0.00 0.00 41 1018.4
20260503193005 77 195 2.0 9.0 0.00 0.00 0.00 42 1018.5
20260503192005 77 231 3.0 9.0 0.00 0.00 0.00 43 1018.7
20260503191006 78 251 3.0 10.0 0.00 0.00 0.00 44 1018.9
20260503190005 78 224 4.0 10.0 0.00 0.00 0.00 45 1019.0
20260503185006 77 260 3.0 10.0 0.00 0.00 0.00 45 1019.1
20260503184005 77 249 3.0 12.0 0.00 0.00 0.00 44 1019.3
20260503183006 76 216 3.0 11.0 0.00 0.00 0.00 45 1019.5
20260503180006 76 201 3.0 9.0 0.00 0.00 0.00 45 1020.1
20260503175005 76 209 3.0 9.0 0.00 0.00 0.00 46 1020.3
20260503174006 75 258 4.0 14.0 0.00 0.00 0.00 46 1020.5
20260503173005 75 230 4.0 12.0 0.00 0.00 0.00 47 1020.7
20260503172005 74 202 2.0 12.0 0.00 0.00 0.00 48 1020.8
20260503171005 74 204 3.0 6.0 0.00 0.00 0.00 50 1020.7
20260503151005 66 191 2.0 5.0 0.00 0.00 0.00 65 1021.2
20260503131004 53 0 0.0 2.0 0.00 0.00 0.00 90 1020.7
20260503081005 54 0 0.0 0.0 0.00 0.00 0.00 87 1019.0
20260503072004 54 0 0.0 0.0 0.00 0.00 0.00 87 1019.0
20260503071005 55 0 0.0 0.0 0.00 0.00 0.00 87 1019.0
20260503055016 55 0 0.0 0.0 0.00 0.00 0.00 86 1019.1
20260503054015 56 0 0.0 0.0 0.00 0.00 0.00 86 1019.1
20260503053015 55 0 0.0 0.0 0.00 0.00 0.00 87 1019.0
20260503052017 55 0 0.0 0.0 0.00 0.00 0.00 87 1019.0
20260503051016 55 0 0.0 0.0 0.00 0.00 0.00 86 1018.9
20260503050017 55 0 0.0 0.0 0.00 0.00 0.00 85 1018.9
20260503045015 55 0 0.0 0.0 0.00 0.00 0.00 86 1019.0
20260503043015 56 0 0.0 0.0 0.00 0.00 0.00 85 1019.0
20260503042016 55 0 0.0 0.0 0.00 0.00 0.00 85 1019.0
20260503041016 56 0 0.0 0.0 0.00 0.00 0.00 86 1019.1
20260503040016 56 0 0.0 0.0 0.00 0.00 0.00 86 1019.1
20260503035015 56 0 0.0 0.0 0.00 0.00 0.00 86 1019.1
20260503034015 56 0 0.0 0.0 0.00 0.00 0.00 85 1019.0
20260503033015 56 0 0.0 0.0 0.00 0.00 0.00 83 1019.0
20260503032016 57 0 0.0 0.0 0.00 0.00 0.00 82 1018.9
20260503031015 58 0 0.0 0.0 0.00 0.00 0.00 82 1018.8
20260503030016 58 0 0.0 0.0 0.00 0.00 0.00 80 1018.8
20260503025015 58 0 0.0 0.0 0.00 0.00 0.00 80 1018.7
20260503023016 59 0 0.0 0.0 0.00 0.00 0.00 79 1018.5
20260503021016 60 0 0.0 0.0 0.00 0.00 0.00 75 1018.4
20260503020016 61 0 0.0 0.0 0.00 0.00 0.00 69 1018.3
20260503015016 62 0 0.0 0.0 0.00 0.00 0.00 67 1018.2
20260503014016 63 0 0.0 0.0 0.00 0.00 0.00 63 1018.1
20260503013016 64 0 0.0 0.0 0.00 0.00 0.00 64 1018.0
20260503005015 68 296 1.0 3.0 0.00 0.00 0.00 54 1017.6
20260503004016 69 291 0.0 5.0 0.00 0.00 0.00 51 1017.6
20260503003016 70 322 1.0 5.0 0.00 0.00 0.00 53 1017.5
20260503002015 70 323 1.0 3.0 0.00 0.00 0.00 51 1017.5
20260503001016 71 327 1.0 3.0 0.00 0.00 0.00 46 1017.5
20260503000017 72 305 2.0 6.0 0.00 0.01 0.00 43 1017.4
20260502235016 72 313 2.0 6.0 0.00 0.01 0.00 46 1017.4
20260502234016 72 282 2.0 6.0 0.00 0.01 0.00 43 1017.4
20260502233015 73 313 1.0 5.0 0.00 0.01 0.00 43 1017.4
20260502232016 73 317 1.0 3.0 0.00 0.01 0.00 41 1017.4
20260502231017 74 287 2.0 6.0 0.00 0.01 0.00 41 1017.3
20260502230016 74 296 2.0 7.0 0.00 0.01 0.00 41 1017.3
20260502225016 73 341 2.0 4.0 0.00 0.01 0.00 41 1017.3
20260502224017 73 343 3.0 8.0 0.00 0.01 0.00 40 1017.4
20260502223016 74 5 2.0 7.0 0.00 0.01 0.00 40 1017.4
20260502222016 74 9 2.0 7.0 0.00 0.01 0.00 43 1017.5
20260502221015 75 352 2.0 6.0 0.00 0.01 0.00 44 1017.5
20260502220015 75 14 2.0 8.0 0.00 0.01 0.00 40 1017.5
20260502215015 75 11 2.0 6.0 0.00 0.01 0.00 43 1017.5
20260502214015 76 40 3.0 9.0 0.00 0.01 0.00 44 1017.5
20260502212016 76 333 2.0 6.0 0.00 0.01 0.00 42 1017.6
20260502211015 76 325 3.0 8.0 0.00 0.01 0.00 42 1017.8
20260502210015 75 39 2.0 5.0 0.00 0.01 0.00 46 1017.9
20260502205015 73 39 1.0 7.0 0.00 0.01 0.00 46 1017.9
20260502204015 72 29 2.0 10.0 0.00 0.01 0.00 44 1018.2
20260502203015 74 17 2.0 7.0 0.00 0.01 0.00 46 1018.3
20260502202015 73 28 3.0 6.0 0.00 0.01 0.00 44 1018.3